owner,sensor,date,latitude,longitude,vertical_datum,mass_concentration_of_oxygen_in_sea_water,qcFlag 
SCCF RECON,ioos:station:SCCF:11:1,2019-05-01T04:00:00Z,26.4679,-82.0631,1.863,5.62,11111222 
SCCF RECON,ioos:station:SCCF:11:1,2019-05-01T05:00:00Z,26.4679,-82.0631,1.79,5.96,11111222 
SCCF RECON,ioos:station:SCCF:11:1,2019-05-01T06:00:00Z,26.4679,-82.0631,1.671,6.0,11111222 
SCCF RECON,ioos:station:SCCF:11:1,2019-05-01T07:00:00Z,26.4679,-82.0631,1.56,5.61,11111222 
SCCF RECON,ioos:station:SCCF:11:1,2019-05-01T08:00:00Z,26.4679,-82.0631,1.463,5.33,11111222 
SCCF RECON,ioos:station:SCCF:11:1,2019-05-01T09:00:00Z,26.4679,-82.0631,1.397,4.99,11111222 
SCCF RECON,ioos:station:SCCF:11:1,2019-05-01T10:00:00Z,26.4679,-82.0631,1.36,4.91,11111222 
SCCF RECON,ioos:station:SCCF:11:1,2019-05-01T11:00:00Z,26.4679,-82.0631,1.401,4.56,11111222 
SCCF RECON,ioos:station:SCCF:11:1,2019-05-01T12:00:00Z,26.4679,-82.0631,1.53,4.88,11111222 
SCCF RECON,ioos:station:SCCF:11:1,2019-05-01T13:00:00Z,26.4679,-82.0631,1.671,5.38,11111222 
SCCF RECON,ioos:station:SCCF:11:1,2019-05-01T14:00:00Z,26.4679,-82.0631,1.79,6.01,11111222 
SCCF RECON,ioos:station:SCCF:11:1,2019-05-01T15:00:00Z,26.4679,-82.0631,1.869,6.25,11111222 
SCCF RECON,ioos:station:SCCF:11:1,2019-05-01T16:00:00Z,26.4679,-82.0631,1.881,5.81,11111222 
SCCF RECON,ioos:station:SCCF:11:1,2019-05-01T17:00:00Z,26.4679,-82.0631,1.866,6.05,11111222 
SCCF RECON,ioos:station:SCCF:11:1,2019-05-01T18:00:00Z,26.4679,-82.0631,1.741,6.2,11111222 
SCCF RECON,ioos:station:SCCF:11:1,2019-05-01T19:00:00Z,26.4679,-82.0631,1.631,6.5,11111222 
SCCF RECON,ioos:station:SCCF:11:1,2019-05-01T20:00:00Z,26.4679,-82.0631,1.551,6.86,11111222 
SCCF RECON,ioos:station:SCCF:11:1,2019-05-01T21:00:00Z,26.4679,-82.0631,1.449,7.1,11111222 
SCCF RECON,ioos:station:SCCF:11:1,2019-05-01T22:00:00Z,26.4679,-82.0631,1.37,7.02,11111222 
SCCF RECON,ioos:station:SCCF:11:1,2019-05-01T23:00:00Z,26.4679,-82.0631,1.38,6.95,11111222 
SCCF RECON,ioos:station:SCCF:11:1,2019-05-02T04:00:00Z,26.4679,-82.0631,1.834,5.78,11111222 
SCCF RECON,ioos:station:SCCF:11:1,2019-05-02T05:00:00Z,26.4679,-82.0631,1.818,5.86,11111222 
SCCF RECON,ioos:station:SCCF:11:1,2019-05-02T06:00:00Z,26.4679,-82.0631,1.729,5.89,11111222 
SCCF RECON,ioos:station:SCCF:11:1,2019-05-02T07:00:00Z,26.4679,-82.0631,1.623,5.66,11111222 
SCCF RECON,ioos:station:SCCF:11:1,2019-05-02T08:00:00Z,26.4679,-82.0631,1.53,5.29,11111222 
SCCF RECON,ioos:station:SCCF:11:1,2019-05-02T09:00:00Z,26.4679,-82.0631,1.458,5.01,11111222 
SCCF RECON,ioos:station:SCCF:11:1,2019-05-02T10:00:00Z,26.4679,-82.0631,1.399,4.85,11111222 
SCCF RECON,ioos:station:SCCF:11:1,2019-05-02T11:00:00Z,26.4679,-82.0631,1.416,4.67,11111222 
SCCF RECON,ioos:station:SCCF:11:1,2019-05-02T12:00:00Z,26.4679,-82.0631,1.518,4.63,11111222 
SCCF RECON,ioos:station:SCCF:11:1,2019-05-02T13:00:00Z,26.4679,-82.0631,1.66,5.22,11111222 
SCCF RECON,ioos:station:SCCF:11:1,2019-05-02T14:00:00Z,26.4679,-82.0631,1.79,5.61,11111222 
SCCF RECON,ioos:station:SCCF:11:1,2019-05-02T15:00:00Z,26.4679,-82.0631,1.888,5.71,11111222 
SCCF RECON,ioos:station:SCCF:11:1,2019-05-02T16:00:00Z,26.4679,-82.0631,1.948,5.9,11111222 
SCCF RECON,ioos:station:SCCF:11:1,2019-05-02T17:00:00Z,26.4679,-82.0631,1.95,6.28,11111222 
SCCF RECON,ioos:station:SCCF:11:1,2019-05-02T18:00:00Z,26.4679,-82.0631,1.88,6.3,11111222 
SCCF RECON,ioos:station:SCCF:11:1,2019-05-02T19:00:00Z,26.4679,-82.0631,1.745,7.51,11111222 
SCCF RECON,ioos:station:SCCF:11:1,2019-05-02T20:00:00Z,26.4679,-82.0631,1.613,7.26,11111222 
SCCF RECON,ioos:station:SCCF:11:1,2019-05-02T21:00:00Z,26.4679,-82.0631,1.509,7.18,11111222 
SCCF RECON,ioos:station:SCCF:11:1,2019-05-02T22:00:00Z,26.4679,-82.0631,1.417,7.12,11111222 
SCCF RECON,ioos:station:SCCF:11:1,2019-05-02T23:00:00Z,26.4679,-82.0631,1.351,7.05,11111222 
SCCF RECON,ioos:station:SCCF:11:1,2019-05-03T04:00:00Z,26.4679,-82.0631,1.85,6.71,11111222 
SCCF RECON,ioos:station:SCCF:11:1,2019-05-03T05:00:00Z,26.4679,-82.0631,1.91,6.42,11111222 
SCCF RECON,ioos:station:SCCF:11:1,2019-05-03T06:00:00Z,26.4679,-82.0631,1.89,6.24,11111222 
SCCF RECON,ioos:station:SCCF:11:1,2019-05-03T07:00:00Z,26.4679,-82.0631,1.79,6.04,11111222 
SCCF RECON,ioos:station:SCCF:11:1,2019-05-03T08:00:00Z,26.4679,-82.0631,1.719,6.01,11111222 
SCCF RECON,ioos:station:SCCF:11:1,2019-05-03T09:00:00Z,26.4679,-82.0631,1.64,5.71,11111222 
SCCF RECON,ioos:station:SCCF:11:1,2019-05-03T10:00:00Z,26.4679,-82.0631,1.536,5.43,11111222 
SCCF RECON,ioos:station:SCCF:11:1,2019-05-03T11:00:00Z,26.4679,-82.0631,1.476,5.03,11111222 
SCCF RECON,ioos:station:SCCF:11:1,2019-05-03T12:00:00Z,26.4679,-82.0631,1.53,4.89,11111222 
SCCF RECON,ioos:station:SCCF:11:1,2019-05-03T13:00:00Z,26.4679,-82.0631,1.67,5.31,11111222 
SCCF RECON,ioos:station:SCCF:11:1,2019-05-03T14:00:00Z,26.4679,-82.0631,1.818,5.65,11111222 
SCCF RECON,ioos:station:SCCF:11:1,2019-05-03T15:00:00Z,26.4679,-82.0631,1.913,5.77,11111222 
SCCF RECON,ioos:station:SCCF:11:1,2019-05-03T16:00:00Z,26.4679,-82.0631,1.988,6.5,11111222 
SCCF RECON,ioos:station:SCCF:11:1,2019-05-03T17:00:00Z,26.4679,-82.0631,2.013,6.45,11111222 
SCCF RECON,ioos:station:SCCF:11:1,2019-05-03T18:00:00Z,26.4679,-82.0631,1.95,6.69,11111222 
SCCF RECON,ioos:station:SCCF:11:1,2019-05-03T19:00:00Z,26.4679,-82.0631,1.831,7.29,11111222 
SCCF RECON,ioos:station:SCCF:11:1,2019-05-03T20:00:00Z,26.4679,-82.0631,1.691,7.62,11111222 
SCCF RECON,ioos:station:SCCF:11:1,2019-05-03T21:00:00Z,26.4679,-82.0631,1.551,7.56,11111222 
SCCF RECON,ioos:station:SCCF:11:1,2019-05-03T22:00:00Z,26.4679,-82.0631,1.44,7.31,11111222 
SCCF RECON,ioos:station:SCCF:11:1,2019-05-03T23:00:00Z,26.4679,-82.0631,1.35,7.0,11111222 
SCCF RECON,ioos:station:SCCF:11:1,2019-05-04T04:00:00Z,26.4679,-82.0631,1.78,6.65,11111222 
SCCF RECON,ioos:station:SCCF:11:1,2019-05-04T05:00:00Z,26.4679,-82.0631,1.869,6.49,11111222 
SCCF RECON,ioos:station:SCCF:11:1,2019-05-04T06:00:00Z,26.4679,-82.0631,1.9,6.07,11111222 
SCCF RECON,ioos:station:SCCF:11:1,2019-05-04T07:00:00Z,26.4679,-82.0631,1.839,6.18,11111222 
SCCF RECON,ioos:station:SCCF:11:1,2019-05-04T08:00:00Z,26.4679,-82.0631,1.7,6.09,11111222 
SCCF RECON,ioos:station:SCCF:11:1,2019-05-04T09:00:00Z,26.4679,-82.0631,1.602,5.52,11111222 
SCCF RECON,ioos:station:SCCF:11:1,2019-05-04T10:00:00Z,26.4679,-82.0631,1.56,5.26,11111222 
SCCF RECON,ioos:station:SCCF:11:1,2019-05-04T11:00:00Z,26.4679,-82.0631,1.52,5.15,11111222 
SCCF RECON,ioos:station:SCCF:11:1,2019-05-04T12:00:00Z,26.4679,-82.0631,1.505,4.95,11111222 
SCCF RECON,ioos:station:SCCF:11:1,2019-05-04T13:00:00Z,26.4679,-82.0631,1.576,4.71,11111222 
SCCF RECON,ioos:station:SCCF:11:1,2019-05-04T14:00:00Z,26.4679,-82.0631,1.701,5.65,11111222 
SCCF RECON,ioos:station:SCCF:11:1,2019-05-04T15:00:00Z,26.4679,-82.0631,1.829,5.91,11111222 
SCCF RECON,ioos:station:SCCF:11:1,2019-05-04T16:00:00Z,26.4679,-82.0631,1.93,5.9,11111222 
SCCF RECON,ioos:station:SCCF:11:1,2019-05-04T17:00:00Z,26.4679,-82.0631,2.001,6.04,11111222 
SCCF RECON,ioos:station:SCCF:11:1,2019-05-04T18:00:00Z,26.4679,-82.0631,2.022,6.32,11111222 
SCCF RECON,ioos:station:SCCF:11:1,2019-05-04T19:00:00Z,26.4679,-82.0631,1.911,7.12,11111222 
SCCF RECON,ioos:station:SCCF:11:1,2019-05-04T20:00:00Z,26.4679,-82.0631,1.73,7.83,11111222 
SCCF RECON,ioos:station:SCCF:11:1,2019-05-04T21:00:00Z,26.4679,-82.0631,1.58,7.55,11111222 
SCCF RECON,ioos:station:SCCF:11:1,2019-05-04T22:00:00Z,26.4679,-82.0631,1.451,7.22,11111222 
SCCF RECON,ioos:station:SCCF:11:1,2019-05-04T23:00:00Z,26.4679,-82.0631,1.347,7.14,11111222 
SCCF RECON,ioos:station:SCCF:11:1,2019-05-05T04:00:00Z,26.4679,-82.0631,1.71,6.4,11111222 
SCCF RECON,ioos:station:SCCF:11:1,2019-05-05T05:00:00Z,26.4679,-82.0631,1.82,6.15,11111222 
SCCF RECON,ioos:station:SCCF:11:1,2019-05-05T06:00:00Z,26.4679,-82.0631,1.896,6.09,11111222 
SCCF RECON,ioos:station:SCCF:11:1,2019-05-05T07:00:00Z,26.4679,-82.0631,1.895,5.58,11111222 
SCCF RECON,ioos:station:SCCF:11:1,2019-05-05T08:00:00Z,26.4679,-82.0631,1.84,5.85,11111222 
SCCF RECON,ioos:station:SCCF:11:1,2019-05-05T09:00:00Z,26.4679,-82.0631,1.75,5.34,11111222 
SCCF RECON,ioos:station:SCCF:11:1,2019-05-05T10:00:00Z,26.4679,-82.0631,1.68,5.11,11111222 
SCCF RECON,ioos:station:SCCF:11:1,2019-05-05T11:00:00Z,26.4679,-82.0631,1.61,4.75,11111222 
SCCF RECON,ioos:station:SCCF:11:1,2019-05-05T12:00:00Z,26.4679,-82.0631,1.566,4.59,11111222 
SCCF RECON,ioos:station:SCCF:11:1,2019-05-05T13:00:00Z,26.4679,-82.0631,1.59,4.64,11111222 
SCCF RECON,ioos:station:SCCF:11:1,2019-05-05T14:00:00Z,26.4679,-82.0631,1.721,5.24,11111222 
SCCF RECON,ioos:station:SCCF:11:1,2019-05-05T15:00:00Z,26.4679,-82.0631,1.862,5.53,11111222 
SCCF RECON,ioos:station:SCCF:11:1,2019-05-05T16:00:00Z,26.4679,-82.0631,1.99,5.85,11111222 
SCCF RECON,ioos:station:SCCF:11:1,2019-05-05T17:00:00Z,26.4679,-82.0631,2.06,5.56,11111222 
SCCF RECON,ioos:station:SCCF:11:1,2019-05-05T18:00:00Z,26.4679,-82.0631,2.08,5.75,11111222 
SCCF RECON,ioos:station:SCCF:11:1,2019-05-05T19:00:00Z,26.4679,-82.0631,2.08,6.66,11111222 
SCCF RECON,ioos:station:SCCF:11:1,2019-05-05T20:00:00Z,26.4679,-82.0631,1.91,6.96,11111222 
SCCF RECON,ioos:station:SCCF:11:1,2019-05-05T21:00:00Z,26.4679,-82.0631,1.71,7.05,11111222 
SCCF RECON,ioos:station:SCCF:11:1,2019-05-05T22:00:00Z,26.4679,-82.0631,1.548,6.84,11111222 
SCCF RECON,ioos:station:SCCF:11:1,2019-05-05T23:00:00Z,26.4679,-82.0631,1.411,6.62,11111222 
SCCF RECON,ioos:station:SCCF:11:1,2019-05-06T04:00:00Z,26.4679,-82.0631,1.555,6.16,11111222 
SCCF RECON,ioos:station:SCCF:11:1,2019-05-06T05:00:00Z,26.4679,-82.0631,1.664,5.95,11111222 
SCCF RECON,ioos:station:SCCF:11:1,2019-05-06T06:00:00Z,26.4679,-82.0631,1.77,5.66,11111222 
SCCF RECON,ioos:station:SCCF:11:1,2019-05-06T07:00:00Z,26.4679,-82.0631,1.864,5.89,11111222 
SCCF RECON,ioos:station:SCCF:11:1,2019-05-06T08:00:00Z,26.4679,-82.0631,1.883,5.48,11111222 
SCCF RECON,ioos:station:SCCF:11:1,2019-05-06T09:00:00Z,26.4679,-82.0631,1.819,5.64,11111222 
SCCF RECON,ioos:station:SCCF:11:1,2019-05-06T10:00:00Z,26.4679,-82.0631,1.723,5.05,11111222 
SCCF RECON,ioos:station:SCCF:11:1,2019-05-06T11:00:00Z,26.4679,-82.0631,1.62,4.77,11111222 
SCCF RECON,ioos:station:SCCF:11:1,2019-05-06T12:00:00Z,26.4679,-82.0631,1.59,4.45,11111222 
SCCF RECON,ioos:station:SCCF:11:1,2019-05-06T13:00:00Z,26.4679,-82.0631,1.599,4.47,11111222 
SCCF RECON,ioos:station:SCCF:11:1,2019-05-06T14:00:00Z,26.4679,-82.0631,1.739,4.92,11111222 
SCCF RECON,ioos:station:SCCF:11:1,2019-05-06T15:00:00Z,26.4679,-82.0631,1.884,5.74,11111222 
SCCF RECON,ioos:station:SCCF:11:1,2019-05-06T16:00:00Z,26.4679,-82.0631,1.999,5.77,11111222 
SCCF RECON,ioos:station:SCCF:11:1,2019-05-06T17:00:00Z,26.4679,-82.0631,2.071,5.78,11111222 
SCCF RECON,ioos:station:SCCF:11:1,2019-05-06T18:00:00Z,26.4679,-82.0631,2.098,5.83,11111222 
SCCF RECON,ioos:station:SCCF:11:1,2019-05-06T19:00:00Z,26.4679,-82.0631,2.023,7.29,11111222 
SCCF RECON,ioos:station:SCCF:11:1,2019-05-06T20:00:00Z,26.4679,-82.0631,1.91,7.49,11111222 
SCCF RECON,ioos:station:SCCF:11:1,2019-05-06T21:00:00Z,26.4679,-82.0631,1.769,7.29,11111222 
SCCF RECON,ioos:station:SCCF:11:1,2019-05-06T22:00:00Z,26.4679,-82.0631,1.63,7.27,11111222 
SCCF RECON,ioos:station:SCCF:11:1,2019-05-06T23:00:00Z,26.4679,-82.0631,1.48,6.69,11111222 
SCCF RECON,ioos:station:SCCF:11:1,2019-05-07T04:00:00Z,26.4679,-82.0631,1.397,5.41,11111222 
SCCF RECON,ioos:station:SCCF:11:1,2019-05-07T05:00:00Z,26.4679,-82.0631,1.56,5.8,11111222 
SCCF RECON,ioos:station:SCCF:11:1,2019-05-07T06:00:00Z,26.4679,-82.0631,1.7,5.3,11111222 
SCCF RECON,ioos:station:SCCF:11:1,2019-05-07T07:00:00Z,26.4679,-82.0631,1.792,5.01,11111222 
SCCF RECON,ioos:station:SCCF:11:1,2019-05-07T08:00:00Z,26.4679,-82.0631,1.839,5.85,11111222 
SCCF RECON,ioos:station:SCCF:11:1,2019-05-07T09:00:00Z,26.4679,-82.0631,1.81,5.68,11111222 
SCCF RECON,ioos:station:SCCF:11:1,2019-05-07T10:00:00Z,26.4679,-82.0631,1.73,5.56,11111222 
SCCF RECON,ioos:station:SCCF:11:1,2019-05-07T11:00:00Z,26.4679,-82.0631,1.666,5.17,11111222 
SCCF RECON,ioos:station:SCCF:11:1,2019-05-07T12:00:00Z,26.4679,-82.0631,1.651,4.76,11111222 
SCCF RECON,ioos:station:SCCF:11:1,2019-05-07T13:00:00Z,26.4679,-82.0631,1.66,4.53,11111222 
SCCF RECON,ioos:station:SCCF:11:1,2019-05-07T14:00:00Z,26.4679,-82.0631,1.69,4.57,11111222 
SCCF RECON,ioos:station:SCCF:11:1,2019-05-07T15:00:00Z,26.4679,-82.0631,1.77,4.69,11111222 
SCCF RECON,ioos:station:SCCF:11:1,2019-05-07T16:00:00Z,26.4679,-82.0631,1.873,5.27,11111222 
SCCF RECON,ioos:station:SCCF:11:1,2019-05-07T17:00:00Z,26.4679,-82.0631,1.971,5.6,11111222 
SCCF RECON,ioos:station:SCCF:11:1,2019-05-07T18:00:00Z,26.4679,-82.0631,2.024,5.83,11111222 
SCCF RECON,ioos:station:SCCF:11:1,2019-05-07T19:00:00Z,26.4679,-82.0631,2.018,7.2,11111222 
SCCF RECON,ioos:station:SCCF:11:1,2019-05-07T20:00:00Z,26.4679,-82.0631,1.951,7.42,11111222 
SCCF RECON,ioos:station:SCCF:11:1,2019-05-07T21:00:00Z,26.4679,-82.0631,1.829,7.66,11111222 
SCCF RECON,ioos:station:SCCF:11:1,2019-05-07T22:00:00Z,26.4679,-82.0631,1.68,7.77,11111222 
SCCF RECON,ioos:station:SCCF:11:1,2019-05-07T23:00:00Z,26.4679,-82.0631,1.547,7.4,11111222 
SCCF RECON,ioos:station:SCCF:11:1,2019-05-08T04:00:00Z,26.4679,-82.0631,1.257,5.09,11111222 
SCCF RECON,ioos:station:SCCF:11:1,2019-05-08T05:00:00Z,26.4679,-82.0631,1.425,5.73,11111222 
SCCF RECON,ioos:station:SCCF:11:1,2019-05-08T06:00:00Z,26.4679,-82.0631,1.581,5.71,11111222 
SCCF RECON,ioos:station:SCCF:11:1,2019-05-08T07:00:00Z,26.4679,-82.0631,1.7,5.12,11111222 
SCCF RECON,ioos:station:SCCF:11:1,2019-05-08T08:00:00Z,26.4679,-82.0631,1.765,5.73,11111222 
SCCF RECON,ioos:station:SCCF:11:1,2019-05-08T09:00:00Z,26.4679,-82.0631,1.806,5.55,11111222 
SCCF RECON,ioos:station:SCCF:11:1,2019-05-08T10:00:00Z,26.4679,-82.0631,1.81,5.34,11111222 
SCCF RECON,ioos:station:SCCF:11:1,2019-05-08T11:00:00Z,26.4679,-82.0631,1.769,5.34,11111222 
SCCF RECON,ioos:station:SCCF:11:1,2019-05-08T13:00:00Z,26.4679,-82.0631,1.68,5.19,11111222 
SCCF RECON,ioos:station:SCCF:11:1,2019-05-08T14:00:00Z,26.4679,-82.0631,1.69,5.14,11111222 
SCCF RECON,ioos:station:SCCF:11:1,2019-05-08T15:00:00Z,26.4679,-82.0631,1.75,5.22,11111222 
SCCF RECON,ioos:station:SCCF:11:1,2019-05-08T16:00:00Z,26.4679,-82.0631,1.86,6.03,11111222 
SCCF RECON,ioos:station:SCCF:11:1,2019-05-08T18:00:00Z,26.4679,-82.0631,2.03,6.24,11111222 
SCCF RECON,ioos:station:SCCF:11:1,2019-05-08T19:00:00Z,26.4679,-82.0631,2.066,6.18,11111222 
SCCF RECON,ioos:station:SCCF:11:1,2019-05-08T20:00:00Z,26.4679,-82.0631,2.041,7.25,11111222 
SCCF RECON,ioos:station:SCCF:11:1,2019-05-08T21:00:00Z,26.4679,-82.0631,1.961,7.58,11111222 
SCCF RECON,ioos:station:SCCF:11:1,2019-05-08T22:00:00Z,26.4679,-82.0631,1.869,8.31,11111222 
SCCF RECON,ioos:station:SCCF:11:1,2019-05-08T23:00:00Z,26.4679,-82.0631,1.766,7.48,11111222 
SCCF RECON,ioos:station:SCCF:11:1,2019-05-09T04:00:00Z,26.4679,-82.0631,1.23,4.78,11111222 
SCCF RECON,ioos:station:SCCF:11:1,2019-05-09T05:00:00Z,26.4679,-82.0631,1.34,5.18,11111222 
SCCF RECON,ioos:station:SCCF:11:1,2019-05-09T06:00:00Z,26.4679,-82.0631,1.481,5.35,11111222 
SCCF RECON,ioos:station:SCCF:11:1,2019-05-09T07:00:00Z,26.4679,-82.0631,1.6,5.18,11111222 
SCCF RECON,ioos:station:SCCF:11:1,2019-05-09T08:00:00Z,26.4679,-82.0631,1.703,5.18,11111222 
SCCF RECON,ioos:station:SCCF:11:1,2019-05-09T09:00:00Z,26.4679,-82.0631,1.79,5.05,11111222 
SCCF RECON,ioos:station:SCCF:11:1,2019-05-09T10:00:00Z,26.4679,-82.0631,1.833,4.8,11111222 
SCCF RECON,ioos:station:SCCF:11:1,2019-05-09T11:00:00Z,26.4679,-82.0631,1.849,5.29,11111222 
SCCF RECON,ioos:station:SCCF:11:1,2019-05-09T12:00:00Z,26.4679,-82.0631,1.809,5.29,11111222 
SCCF RECON,ioos:station:SCCF:11:1,2019-05-09T13:00:00Z,26.4679,-82.0631,1.759,5.36,11111222 
SCCF RECON,ioos:station:SCCF:11:1,2019-05-09T14:00:00Z,26.4679,-82.0631,1.744,5.27,11111222 
SCCF RECON,ioos:station:SCCF:11:1,2019-05-09T15:00:00Z,26.4679,-82.0631,1.761,5.52,11111222 
SCCF RECON,ioos:station:SCCF:11:1,2019-05-09T16:00:00Z,26.4679,-82.0631,1.82,5.99,11111222 
SCCF RECON,ioos:station:SCCF:11:1,2019-05-09T17:00:00Z,26.4679,-82.0631,1.89,6.29,11111222 
SCCF RECON,ioos:station:SCCF:11:1,2019-05-09T18:00:00Z,26.4679,-82.0631,1.97,7.11,11111222 
SCCF RECON,ioos:station:SCCF:11:1,2019-05-09T19:00:00Z,26.4679,-82.0631,2.03,6.83,11111222 
SCCF RECON,ioos:station:SCCF:11:1,2019-05-09T20:00:00Z,26.4679,-82.0631,2.061,8.09,11111222 
SCCF RECON,ioos:station:SCCF:11:1,2019-05-09T21:00:00Z,26.4679,-82.0631,2.035,8.13,11111222 
SCCF RECON,ioos:station:SCCF:11:1,2019-05-09T22:00:00Z,26.4679,-82.0631,1.978,8.39,11111222 
SCCF RECON,ioos:station:SCCF:11:1,2019-05-09T23:00:00Z,26.4679,-82.0631,1.841,7.81,11111222 
SCCF RECON,ioos:station:SCCF:11:1,2019-05-10T04:00:00Z,26.4679,-82.0631,1.251,5.29,11111222 
SCCF RECON,ioos:station:SCCF:11:1,2019-05-10T05:00:00Z,26.4679,-82.0631,1.22,5.16,11111222 
SCCF RECON,ioos:station:SCCF:11:1,2019-05-10T06:00:00Z,26.4679,-82.0631,1.33,4.64,11111222 
SCCF RECON,ioos:station:SCCF:11:1,2019-05-10T07:00:00Z,26.4679,-82.0631,1.46,4.77,11111222 
SCCF RECON,ioos:station:SCCF:11:1,2019-05-10T08:00:00Z,26.4679,-82.0631,1.571,5.1,11111222 
SCCF RECON,ioos:station:SCCF:11:1,2019-05-10T09:00:00Z,26.4679,-82.0631,1.64,4.77,11111222 
SCCF RECON,ioos:station:SCCF:11:1,2019-05-10T10:00:00Z,26.4679,-82.0631,1.715,4.81,11111222 
SCCF RECON,ioos:station:SCCF:11:1,2019-05-10T11:00:00Z,26.4679,-82.0631,1.786,5.11,11111222 
SCCF RECON,ioos:station:SCCF:11:1,2019-05-10T12:00:00Z,26.4679,-82.0631,1.801,5.09,11111222 
SCCF RECON,ioos:station:SCCF:11:1,2019-05-10T13:00:00Z,26.4679,-82.0631,1.78,5.06,11111222 
SCCF RECON,ioos:station:SCCF:11:1,2019-05-10T14:00:00Z,26.4679,-82.0631,1.76,4.8,11111222 
SCCF RECON,ioos:station:SCCF:11:1,2019-05-10T15:00:00Z,26.4679,-82.0631,1.79,4.7,11111222 
SCCF RECON,ioos:station:SCCF:11:1,2019-05-10T16:00:00Z,26.4679,-82.0631,1.834,6.11,11111222 
SCCF RECON,ioos:station:SCCF:11:1,2019-05-10T17:00:00Z,26.4679,-82.0631,1.861,6.73,11111222 
SCCF RECON,ioos:station:SCCF:11:1,2019-05-10T18:00:00Z,26.4679,-82.0631,1.91,7.31,11111222 
SCCF RECON,ioos:station:SCCF:11:1,2019-05-10T19:00:00Z,26.4679,-82.0631,1.959,7.61,11111222 
SCCF RECON,ioos:station:SCCF:11:1,2019-05-10T20:00:00Z,26.4679,-82.0631,1.97,7.91,11111222 
SCCF RECON,ioos:station:SCCF:11:1,2019-05-10T21:00:00Z,26.4679,-82.0631,1.99,8.02,11111222 
SCCF RECON,ioos:station:SCCF:11:1,2019-05-10T22:00:00Z,26.4679,-82.0631,1.972,7.15,11111222 
SCCF RECON,ioos:station:SCCF:11:1,2019-05-10T23:00:00Z,26.4679,-82.0631,1.94,8.55,11111222 
SCCF RECON,ioos:station:SCCF:11:1,2019-05-11T04:00:00Z,26.4679,-82.0631,1.38,6.06,11111222 
SCCF RECON,ioos:station:SCCF:11:1,2019-05-11T05:00:00Z,26.4679,-82.0631,1.26,5.03,11111222 
SCCF RECON,ioos:station:SCCF:11:1,2019-05-11T06:00:00Z,26.4679,-82.0631,1.254,4.63,11111222 
SCCF RECON,ioos:station:SCCF:11:1,2019-05-11T07:00:00Z,26.4679,-82.0631,1.33,4.64,11111222 
SCCF RECON,ioos:station:SCCF:11:1,2019-05-11T08:00:00Z,26.4679,-82.0631,1.45,4.91,11111222 
SCCF RECON,ioos:station:SCCF:11:1,2019-05-11T09:00:00Z,26.4679,-82.0631,1.57,5.14,11111222 
SCCF RECON,ioos:station:SCCF:11:1,2019-05-11T10:00:00Z,26.4679,-82.0631,1.68,5.29,11111222 
SCCF RECON,ioos:station:SCCF:11:1,2019-05-11T11:00:00Z,26.4679,-82.0631,1.769,5.2,11111222 
SCCF RECON,ioos:station:SCCF:11:1,2019-05-11T12:00:00Z,26.4679,-82.0631,1.828,5.25,11111222 
SCCF RECON,ioos:station:SCCF:11:1,2019-05-11T13:00:00Z,26.4679,-82.0631,1.82,5.11,11111222 
SCCF RECON,ioos:station:SCCF:11:1,2019-05-13T14:00:00Z,26.4679,-82.0631,1.98,5.42,11111222 
SCCF RECON,ioos:station:SCCF:11:1,2019-05-13T15:00:00Z,26.4679,-82.0631,1.97,5.39,11111222 
SCCF RECON,ioos:station:SCCF:11:1,2019-05-13T16:00:00Z,26.4679,-82.0631,1.895,5.62,11111222 
SCCF RECON,ioos:station:SCCF:11:1,2019-05-13T17:00:00Z,26.4679,-82.0631,1.8,6.29,11111222 
SCCF RECON,ioos:station:SCCF:11:1,2019-05-13T18:00:00Z,26.4679,-82.0631,1.73,6.63,11111222 
SCCF RECON,ioos:station:SCCF:11:1,2019-05-13T19:00:00Z,26.4679,-82.0631,1.67,7.05,11111222 
SCCF RECON,ioos:station:SCCF:11:1,2019-05-13T20:00:00Z,26.4679,-82.0631,1.681,7.29,11111222 
SCCF RECON,ioos:station:SCCF:11:1,2019-05-13T21:00:00Z,26.4679,-82.0631,1.68,7.39,11111222 
SCCF RECON,ioos:station:SCCF:11:1,2019-05-13T22:00:00Z,26.4679,-82.0631,1.731,7.3,11111222 
SCCF RECON,ioos:station:SCCF:11:1,2019-05-13T23:00:00Z,26.4679,-82.0631,1.78,7.42,11111222 
SCCF RECON,ioos:station:SCCF:11:1,2019-05-14T04:00:00Z,26.4679,-82.0631,1.852,6.42,11111222 
SCCF RECON,ioos:station:SCCF:11:1,2019-05-14T06:00:00Z,26.4679,-82.0631,1.554,5.5,11111222 
SCCF RECON,ioos:station:SCCF:11:1,2019-05-14T07:00:00Z,26.4679,-82.0631,1.43,5.08,11111222 
SCCF RECON,ioos:station:SCCF:11:1,2019-05-14T08:00:00Z,26.4679,-82.0631,1.37,4.78,11111222 
SCCF RECON,ioos:station:SCCF:11:1,2019-05-14T09:00:00Z,26.4679,-82.0631,1.393,4.73,11111222 
SCCF RECON,ioos:station:SCCF:11:1,2019-05-14T10:00:00Z,26.4679,-82.0631,1.5,4.35,11111222 
SCCF RECON,ioos:station:SCCF:11:1,2019-05-14T12:00:00Z,26.4679,-82.0631,1.76,4.6,11111222 
SCCF RECON,ioos:station:SCCF:11:1,2019-05-14T13:00:00Z,26.4679,-82.0631,1.85,4.53,11111222 
SCCF RECON,ioos:station:SCCF:11:1,2019-05-14T14:00:00Z,26.4679,-82.0631,1.962,5.21,11111222 
SCCF RECON,ioos:station:SCCF:11:1,2019-05-14T15:00:00Z,26.4679,-82.0631,2.013,5.34,11111222 
SCCF RECON,ioos:station:SCCF:11:1,2019-05-14T16:00:00Z,26.4679,-82.0631,1.971,5.37,11111222 
SCCF RECON,ioos:station:SCCF:11:1,2019-05-14T17:00:00Z,26.4679,-82.0631,1.856,5.45,11111222 
SCCF RECON,ioos:station:SCCF:11:1,2019-05-14T18:00:00Z,26.4679,-82.0631,1.73,5.85,11111222 
SCCF RECON,ioos:station:SCCF:11:1,2019-05-14T19:00:00Z,26.4679,-82.0631,1.64,5.98,11111222 
SCCF RECON,ioos:station:SCCF:11:1,2019-05-14T20:00:00Z,26.4679,-82.0631,1.55,6.24,11111222 
SCCF RECON,ioos:station:SCCF:11:1,2019-05-14T21:00:00Z,26.4679,-82.0631,1.499,6.36,11111222 
SCCF RECON,ioos:station:SCCF:11:1,2019-05-14T22:00:00Z,26.4679,-82.0631,1.52,7.4,11111222 
SCCF RECON,ioos:station:SCCF:11:1,2019-05-14T23:00:00Z,26.4679,-82.0631,1.64,6.73,11111222 
SCCF RECON,ioos:station:SCCF:11:1,2019-05-15T04:00:00Z,26.4679,-82.0631,1.938,5.46,11111222 
SCCF RECON,ioos:station:SCCF:11:1,2019-05-15T05:00:00Z,26.4679,-82.0631,1.79,5.33,11111222 
SCCF RECON,ioos:station:SCCF:11:1,2019-05-15T06:00:00Z,26.4679,-82.0631,1.65,4.97,11111222 
SCCF RECON,ioos:station:SCCF:11:1,2019-05-15T07:00:00Z,26.4679,-82.0631,1.567,4.68,11111222 
SCCF RECON,ioos:station:SCCF:11:1,2019-05-15T08:00:00Z,26.4679,-82.0631,1.502,4.56,11111222 
SCCF RECON,ioos:station:SCCF:11:1,2019-05-15T09:00:00Z,26.4679,-82.0631,1.401,4.45,11111222 
SCCF RECON,ioos:station:SCCF:11:1,2019-05-15T10:00:00Z,26.4679,-82.0631,1.39,4.26,11111222 
SCCF RECON,ioos:station:SCCF:11:1,2019-05-15T11:00:00Z,26.4679,-82.0631,1.5,3.71,11111222 
SCCF RECON,ioos:station:SCCF:11:1,2019-05-15T12:00:00Z,26.4679,-82.0631,1.69,3.85,11111222 
SCCF RECON,ioos:station:SCCF:11:1,2019-05-15T13:00:00Z,26.4679,-82.0631,1.83,4.37,11111222 
SCCF RECON,ioos:station:SCCF:11:1,2019-05-15T14:00:00Z,26.4679,-82.0631,1.95,4.04,11111222 
SCCF RECON,ioos:station:SCCF:11:1,2019-05-15T15:00:00Z,26.4679,-82.0631,2.019,4.13,11111222 
SCCF RECON,ioos:station:SCCF:11:1,2019-05-15T16:00:00Z,26.4679,-82.0631,2.03,4.17,11111222 
SCCF RECON,ioos:station:SCCF:11:1,2019-05-15T17:00:00Z,26.4679,-82.0631,1.927,4.71,11111222 
SCCF RECON,ioos:station:SCCF:11:1,2019-05-15T18:00:00Z,26.4679,-82.0631,1.781,5.23,11111222 
SCCF RECON,ioos:station:SCCF:11:1,2019-05-15T19:00:00Z,26.4679,-82.0631,1.659,5.48,11111222 
SCCF RECON,ioos:station:SCCF:11:1,2019-05-15T20:00:00Z,26.4679,-82.0631,1.54,5.9,11111222 
SCCF RECON,ioos:station:SCCF:11:1,2019-05-15T21:00:00Z,26.4679,-82.0631,1.43,6.39,11111222 
SCCF RECON,ioos:station:SCCF:11:1,2019-05-15T22:00:00Z,26.4679,-82.0631,1.37,6.55,11111222 
SCCF RECON,ioos:station:SCCF:11:1,2019-05-15T23:00:00Z,26.4679,-82.0631,1.414,7.69,11111222 
SCCF RECON,ioos:station:SCCF:11:1,2019-05-16T04:00:00Z,26.4679,-82.0631,1.95,5.66,11111222 
SCCF RECON,ioos:station:SCCF:11:1,2019-05-16T05:00:00Z,26.4679,-82.0631,1.95,5.61,11111222 